| time (UTC) | temp C | wind direction | speed KPH | gust KPH | rain 1hr cm | rain 24hr cm | rain mn cm | humidity % | barometer mb |
| 20260506190035 | 15 | 206 | 14.5 | 30.6 | 0.00 | 0.00 | 0.00 | 20 | 1007.9 |
| 20260506184035 | 15 | 203 | 0.0 | 30.6 | 0.00 | 0.00 | 0.00 | 30 | 1008.2 |
| 20260506182035 | 16 | 163 | 0.0 | 30.6 | 0.00 | 0.00 | 0.00 | 48 | 1008.6 |
| 20260506181927 | 16 | 208 | 11.3 | 30.6 | 0.00 | 0.00 | 0.00 | 48 | 1008.6 |
| 20260506180035 | 17 | 201 | 0.0 | 32.2 | 0.00 | 0.00 | 0.00 | 59 | 1008.7 |
| 20260506174038 | 17 | 199 | 12.9 | 32.2 | 0.00 | 0.00 | 0.00 | 62 | 1008.8 |
| 20260506172035 | 18 | 227 | 25.7 | 32.2 | 0.00 | 0.00 | 0.00 | 64 | 1009.0 |
| 20260506171927 | 18 | 211 | 4.8 | 32.2 | 0.00 | 0.00 | 0.00 | 64 | 1009.0 |
| 20260506170035 | 18 | 229 | 0.0 | 29.0 | 0.00 | 0.00 | 0.00 | 64 | 1008.8 |
| 20260506164036 | 19 | 167 | 3.2 | 29.0 | 0.00 | 0.00 | 0.00 | 65 | 1009.0 |
| 20260506162037 | 19 | 170 | 6.4 | 29.0 | 0.00 | 0.00 | 0.00 | 65 | 1009.2 |
| 20260506161927 | 19 | 202 | 17.7 | 29.0 | 0.00 | 0.00 | 0.00 | 65 | 1009.3 |
| 20260506160035 | 20 | 180 | 16.1 | 19.3 | 0.00 | 0.00 | 0.00 | 64 | 1009.5 |
| 20260506154036 | 20 | 209 | 0.0 | 19.3 | 0.00 | 0.00 | 0.00 | 64 | 1009.4 |
| 20260506152037 | 20 | 179 | 3.2 | 19.3 | 0.00 | 0.00 | 0.00 | 64 | 1009.6 |
| 20260506151927 | 20 | 147 | 3.2 | 19.3 | 0.00 | 0.00 | 0.00 | 64 | 1009.6 |
| 20260506150036 | 20 | 234 | 1.6 | 29.0 | 0.00 | 0.00 | 0.00 | 64 | 1009.8 |
| 20260506144036 | 19 | 185 | 0.0 | 29.0 | 0.00 | 0.00 | 0.00 | 64 | 1009.8 |
| 20260506142035 | 18 | 199 | 0.0 | 29.0 | 0.00 | 0.00 | 0.00 | 64 | 1009.8 |
| 20260506141926 | 18 | 184 | 1.6 | 29.0 | 0.00 | 0.00 | 0.00 | 63 | 1009.8 |
| 20260506140035 | 18 | 188 | 11.3 | 17.7 | 0.00 | 0.00 | 0.00 | 63 | 1009.8 |
| 20260506134037 | 18 | 176 | 0.0 | 17.7 | 0.00 | 0.00 | 0.00 | 61 | 1009.7 |
| 20260506132035 | 18 | 208 | 0.0 | 17.7 | 0.00 | 0.00 | 0.00 | 60 | 1009.9 |
| 20260506131927 | 18 | 175 | 11.3 | 17.7 | 0.00 | 0.00 | 0.00 | 60 | 1009.9 |
| 20260506130035 | 17 | 171 | 0.0 | 22.5 | 0.00 | 0.00 | 0.00 | 56 | 1010.4 |
| 20260506124036 | 16 | 187 | 16.1 | 22.5 | 0.00 | 0.00 | 0.00 | 45 | 1010.3 |
| 20260506122035 | 16 | 234 | 16.1 | 22.5 | 0.00 | 0.00 | 0.00 | 40 | 1010.4 |
| 20260506121926 | 16 | 205 | 8.0 | 22.5 | 0.00 | 0.00 | 0.00 | 40 | 1010.4 |
| 20260506120036 | 15 | 185 | 0.0 | 16.1 | 0.00 | 0.00 | 0.00 | 34 | 1010.4 |
| 20260506114036 | 15 | 180 | 1.6 | 16.1 | 0.00 | 0.00 | 0.00 | 25 | 1010.8 |
| 20260506112035 | 14 | 208 | 0.0 | 16.1 | 0.00 | 0.00 | 0.00 | 24 | 1010.8 |
| 20260506111926 | 14 | 218 | 0.0 | 16.1 | 0.00 | 0.00 | 0.00 | 24 | 1010.8 |
| 20260506110036 | 14 | 185 | 0.0 | 17.7 | 0.00 | 0.00 | 0.00 | 22 | 1010.7 |
| 20260506104034 | 14 | 188 | 0.0 | 17.7 | 0.00 | 0.00 | 0.00 | 24 | 1010.8 |
| 20260506102036 | 14 | 188 | 0.0 | 17.7 | 0.00 | 0.00 | 0.00 | 26 | 1010.6 |
| 20260506101926 | 14 | 189 | 0.0 | 17.7 | 0.00 | 0.00 | 0.00 | 26 | 1010.6 |
| 20260506100036 | 14 | 216 | 0.0 | 17.7 | 0.00 | 0.00 | 0.00 | 27 | 1010.5 |
| 20260506094035 | 14 | 183 | 0.0 | 17.7 | 0.00 | 0.00 | 0.00 | 30 | 1010.5 |
| 20260506092036 | 14 | 209 | 0.0 | 17.7 | 0.00 | 0.00 | 0.00 | 32 | 1010.5 |
| 20260506091926 | 14 | 209 | 0.0 | 17.7 | 0.00 | 0.00 | 0.00 | 32 | 1010.5 |
| 20260506090035 | 14 | 208 | 16.1 | 12.9 | 0.00 | 0.00 | 0.00 | 33 | 1010.7 |
| 20260506084035 | 14 | 174 | 0.0 | 12.9 | 0.00 | 0.00 | 0.00 | 34 | 1010.7 |
| 20260506082035 | 14 | 205 | 0.0 | 12.9 | 0.00 | 0.00 | 0.00 | 35 | 1010.9 |
| 20260506081926 | 14 | 227 | 0.0 | 12.9 | 0.00 | 0.00 | 0.00 | 35 | 1010.9 |
| 20260506072035 | 15 | 205 | 0.0 | 16.1 | 0.00 | 0.00 | 0.00 | 40 | 1011.0 |
| 20260506071926 | 15 | 191 | 0.0 | 16.1 | 0.00 | 0.00 | 0.00 | 41 | 1011.0 |
| 20260506062035 | 15 | 188 | 0.0 | 17.7 | 0.00 | 0.00 | 0.00 | 51 | 1010.8 |
| 20260506061926 | 15 | 182 | 0.0 | 17.7 | 0.00 | 0.00 | 0.00 | 51 | 1010.8 |
| 20260506044035 | 16 | 250 | 3.2 | 22.5 | 0.00 | 0.00 | 0.00 | 62 | 1011.4 |
| 20260506042035 | 16 | 175 | 0.0 | 22.5 | 0.00 | 0.00 | 0.00 | 63 | 1011.4 |
| 20260506041926 | 16 | 226 | 8.0 | 22.5 | 0.00 | 0.00 | 0.00 | 63 | 1011.5 |
| 20260506040035 | 16 | 194 | 0.0 | 24.1 | 0.00 | 0.00 | 0.00 | 64 | 1011.5 |
| 20260506034035 | 16 | 190 | 0.0 | 24.1 | 0.00 | 0.00 | 0.00 | 64 | 1011.4 |
| 20260506032035 | 16 | 191 | 3.2 | 24.1 | 0.00 | 0.00 | 0.00 | 65 | 1011.2 |
| 20260506031926 | 16 | 194 | 0.0 | 24.1 | 0.00 | 0.00 | 0.00 | 65 | 1011.2 |
| 20260506030035 | 16 | 195 | 8.0 | 16.1 | 0.00 | 0.00 | 0.00 | 65 | 1011.3 |
| 20260506024034 | 16 | 206 | 0.0 | 16.1 | 0.00 | 0.00 | 0.00 | 64 | 1011.2 |
| 20260506022035 | 16 | 197 | 0.0 | 16.1 | 0.00 | 0.00 | 0.00 | 64 | 1011.2 |
| 20260506021926 | 16 | 197 | 0.0 | 16.1 | 0.00 | 0.00 | 0.00 | 64 | 1011.1 |
| 20260506020034 | 16 | 188 | 0.0 | 14.5 | 0.00 | 0.00 | 0.00 | 64 | 1011.1 |
| 20260506014036 | 16 | 196 | 0.0 | 14.5 | 0.00 | 0.00 | 0.00 | 64 | 1011.1 |
| 20260506012034 | 16 | 178 | 0.0 | 14.5 | 0.00 | 0.00 | 0.00 | 64 | 1010.9 |
| 20260506011926 | 16 | 180 | 0.0 | 14.5 | 0.00 | 0.00 | 0.00 | 64 | 1010.9 |
| 20260506010034 | 16 | 175 | 0.0 | 22.5 | 0.00 | 0.00 | 0.00 | 65 | 1010.8 |
| 20260506004034 | 16 | 174 | 0.0 | 22.5 | 0.00 | 0.00 | 0.00 | 65 | 1010.7 |
| 20260506002034 | 16 | 207 | 0.0 | 22.5 | 0.00 | 0.00 | 0.00 | 65 | 1010.1 |
| 20260506001926 | 16 | 207 | 0.0 | 22.5 | 0.00 | 0.00 | 0.00 | 65 | 1010.1 |
| 20260506000034 | 16 | 173 | 0.0 | 32.2 | 0.00 | 0.00 | 0.00 | 65 | 1009.8 |
| 20260505234034 | 17 | 194 | 12.9 | 32.2 | 0.00 | 0.00 | 0.00 | 65 | 1009.6 |
| 20260505232034 | 17 | 201 | 25.7 | 32.2 | 0.00 | 0.00 | 0.00 | 64 | 1009.3 |
| 20260505231926 | 17 | 163 | 8.0 | 32.2 | 0.00 | 0.00 | 0.00 | 64 | 1009.2 |
| 20260505230035 | 18 | 210 | 0.0 | 40.2 | 0.00 | 0.00 | 0.00 | 64 | 1008.7 |
| 20260505224034 | 19 | 173 | 0.0 | 40.2 | 0.00 | 0.00 | 0.00 | 62 | 1008.7 |
| 20260505222034 | 20 | 204 | 8.0 | 40.2 | 0.00 | 0.00 | 0.00 | 60 | 1008.7 |
| 20260505221926 | 20 | 186 | 3.2 | 40.2 | 0.00 | 0.00 | 0.00 | 59 | 1008.7 |
| 20260505220034 | 20 | 176 | 8.0 | 35.4 | 0.00 | 0.00 | 0.00 | 57 | 1008.6 |
| 20260505214035 | 21 | 191 | 9.7 | 35.4 | 0.00 | 0.00 | 0.00 | 55 | 1008.5 |
| 20260505212034 | 21 | 161 | 0.0 | 35.4 | 0.00 | 0.00 | 0.00 | 55 | 1008.4 |
| 20260505211926 | 21 | 204 | 19.3 | 35.4 | 0.00 | 0.00 | 0.00 | 55 | 1008.4 |
| 20260505210036 | 21 | 185 | 8.0 | 41.8 | 0.00 | 0.00 | 0.00 | 55 | 1008.3 |
| 20260505204036 | 22 | 187 | 1.6 | 41.8 | 0.00 | 0.00 | 0.00 | 54 | 1008.3 |
| 20260505202036 | 22 | 199 | 16.1 | 41.8 | 0.00 | 0.00 | 0.00 | 53 | 1008.2 |
| 20260505201926 | 22 | 185 | 1.6 | 41.8 | 0.00 | 0.00 | 0.00 | 53 | 1008.3 |
| 20260505200034 | 22 | 202 | 3.2 | 29.0 | 0.00 | 0.00 | 0.00 | 54 | 1008.1 |
| 20260505194036 | 23 | 195 | 8.0 | 29.0 | 0.00 | 0.00 | 0.00 | 53 | 1008.1 |
| 20260505192034 | 23 | 188 | 0.0 | 29.0 | 0.00 | 0.00 | 0.00 | 52 | 1008.1 |
| 20260505191926 | 23 | 162 | 6.4 | 29.0 | 0.00 | 0.00 | 0.00 | 52 | 1008.1 |